Location: *
(39.6167°S, 171.5333°W)
Time: 19:40:57
(UTC+00:00)

Meteor 2-1 Rocket - Pass Details

Date: 13 May 2021
Orbit: 826 x 910 km, 81.3° (Epoch: 20 June)

Event Time Altitude Azimuth Distance (km) Brightness Sun altitude
Rises 16:38:27 0° 347° (NNW) 3,357 7.3 -20.0°
Reaches altitude 10° 16:40:50 10° 345° (NNW) 2,431 6.5 -19.6°
Maximum altitude 16:46:19 72° 260° (W) 881 4.1 -18.5°
Drops below altitude 10° 16:51:56 10° 175° (S) 2,482 6.6 -17.5°
Sets 16:54:24 0° 172° (S) 3,433 7.3 -17.0°
